Change the Weather History Date:

Tuesday, August 26, 2014

  Actual Average Record
Temperature  
Mean Temperature 75 °F -  
Max Temperature 86 °F 86 °F 104 °F (1943)
Min Temperature 64 °F 66 °F 55 °F (1952)
Cooling Degree Days 10    
Growing Degree Days 25 (Base 50)    
Moisture  
Dew Point 59 °F    
Average Humidity 59    
Maximum Humidity 78    
Minimum Humidity 43    
Precipitation  
Precipitation 0.00 in - - ()
Sea Level Pressure  
Sea Level Pressure 30.11 in    
Wind  
Wind Speed 5 mph (NE)    
Max Wind Speed 9 mph    
Max Gust Speed -    
Visibility 10 miles    
Events      
Averages and records for this station are not official NWS values.
T = Trace of Precipitation, MM = Missing Value Source: NWS Daily Summary

Daily Weather History Graph

Daily Weather History Graph

Search for Another Location

Airport or City:

Trip Planner

Search our weather history database for the weather conditions in past years. The results will help you decide how hot, cold, wet, or windy it might be!

Date:

Astronomy

Aug. 26, 2014 Rise Set
Actual Time 7:00 AM EDT 8:05 PM EDT
Civil Twilight 6:34 AM EDT 8:31 PM EDT
Nautical Twilight 6:03 AM EDT 9:02 PM EDT
Astronomical Twilight 5:31 AM EDT 9:34 PM EDT
Moon 7:55 AM EDT (8/26) 8:31 PM EDT (8/26)
Length of Visible Light 13h 57m
Length of Day
13h 05m
New Moon, 1% of the Moon is Illuminated
Aug 26
New Moon
Sep 2
First Quarter
Sep 8
Full
Sep 15
Last Quarter
Sep 24
New

Hourly Weather History & Observations

Time (EDT) Temp. Heat Index Dew Point Humidity Pressure Visibility Wind Dir Wind Speed Gust Speed Precip Events Conditions
12:54 AM 69.1 °F - 59.0 °F 70% 30.13 in 10.0 mi NNE 5.8 mph - N/A   Clear
1:54 AM 70.0 °F - 57.9 °F 65% 30.13 in 10.0 mi NE 4.6 mph - N/A   Clear
2:54 AM 69.1 °F - 57.9 °F 68% 30.12 in 10.0 mi NE 9.2 mph - N/A   Clear
3:54 AM 68.0 °F - 57.0 °F 68% 30.10 in 10.0 mi NE 3.5 mph - N/A   Clear
4:54 AM 68.0 °F - 57.0 °F 68% 30.11 in 10.0 mi NE 4.6 mph - N/A   Clear
5:54 AM 66.0 °F - 57.0 °F 73% 30.12 in 10.0 mi NE 3.5 mph - N/A   Clear
6:54 AM 64.9 °F - 57.9 °F 78% 30.12 in 10.0 mi Calm Calm - N/A   Clear
7:54 AM 66.0 °F - 57.9 °F 75% 30.14 in 10.0 mi NNE 4.6 mph - N/A   Clear
8:54 AM 70.0 °F - 57.9 °F 65% 30.15 in 10.0 mi ENE 3.5 mph - N/A   Clear
9:54 AM 73.9 °F - 60.1 °F 62% 30.17 in 10.0 mi ENE 8.1 mph - N/A   Clear
10:54 AM 75.9 °F - 59.0 °F 56% 30.17 in 10.0 mi East 5.8 mph - N/A   Clear
11:54 AM 78.1 °F - 59.0 °F 52% 30.16 in 10.0 mi East 8.1 mph - N/A   Clear
12:54 PM 81.0 °F 81.3 °F 59.0 °F 47% 30.14 in 10.0 mi Variable 4.6 mph - N/A   Clear
1:54 PM 82.0 °F 82.1 °F 59.0 °F 45% 30.12 in 10.0 mi North - - N/A   Partly Cloudy
2:54 PM 84.9 °F 85.0 °F 61.0 °F 44% 30.09 in 10.0 mi Variable 5.8 mph - N/A   Clear
3:54 PM 86.0 °F 86.3 °F 62.1 °F 44% 30.06 in 10.0 mi Calm Calm - N/A   Clear
5:54 PM 86.0 °F 86.1 °F 61.0 °F 43% 30.05 in 10.0 mi East 5.8 mph - N/A   Clear
6:54 PM 84.0 °F 84.4 °F 61.0 °F 46% 30.06 in 10.0 mi East 5.8 mph - N/A   Clear
7:54 PM 80.1 °F 81.1 °F 61.0 °F 52% 30.07 in 10.0 mi Calm Calm - N/A   Clear
8:54 PM 78.1 °F - 60.1 °F 54% 30.09 in 10.0 mi Calm Calm - N/A   Clear
9:54 PM 75.9 °F - 60.1 °F 58% 30.11 in 10.0 mi Calm Calm - N/A   Clear
10:54 PM 73.9 °F - 62.1 °F 66% 30.12 in 10.0 mi North 4.6 mph - N/A   Partly Cloudy
11:54 PM 72.0 °F - 61.0 °F 68% 30.11 in 10.0 mi North 5.8 mph - N/A   Clear